CAPE
0 0 0 2 0 0 0 0 0 0 0 1 0 0 0 53 80 72 96 70 108 130 167 255 387 306 206 152 242 297 0 253 1632 1869 1708 1173 939 982 870 719 1268 1118 779 870
0 0 0 0 0 0 0 0 0 0 0 0 0 0 78 141 122 104 37 12 1 0 0 12 101 167 779 355 548 193 319 59 1065 2110 2107 1635 1310 1087 907 912 1001 1065 822 1075
0 0 0 0 0 0 0 0 0 0 0 0 7 33 134 231 91 106 116 115 89 96 180 213 234 395 264 775 423 281 240 24 1390 1625 2455 2039 1576 1194 1036 892 1136 1030 823 799
0 0 0 0 0 0 0 0 0 0 0 0 8 240 328 172 150 76 14 9 37 63 133 153 103 157 607 539 636 328 278 97 1175 1895 2255 2141 1599 1245 1065 761 573 1010 877 669
0 0 0 0 0 0 0 0 0 0 0 0 33 404 330 167 65 0 0 0 0 2 29 114 106 160 149 363 521 476 538 170 1269 1862 2094 2128 2051 1603 1208 581 724 848 884 632
0 0 0 0 0 0 1 1 7 3 8 361 159 0 26 118 2 9 0 0 0 0 0 70 252 288 62 114 290 262 467 251 622 1868 2209 2132 1912 1803 1081 698 745 845 783 644
0 7 0 0 0 0 0 41 55 24 72 20 1 0 216 91 20 8 1 0 0 2 12 43 51 6 8 1 37 257 516 363 557 1876 2264 2261 1886 1905 1350 883 777 951 650 652
0 9 0 0 0 0 0 103 36 24 5 0 3 139 133 89 14 0 0 1 9 0 4 37 8 0 0 28 40 81 272 406 527 2021 2194 2285 2132 1670 1181 1016 928 1057 755 593
0 0 0 1 4 0 25 98 46 24 49 51 31 79 242 4 0 0 0 0 0 6 24 41 195 43 0 19 3 8 319 446 1073 2033 2496 2029 1912 1438 1021 1024 1156 1500 1018 1150
0 0 0 0 0 3 37 93 144 144 31 31 1 3 146 0 6 3 0 0 1 4 8 11 53 7 17 14 36 291 521 605 1533 2079 2420 1857 1764 1375 1116 908 1139 1285 1114 1255
0 0 0 1 3 31 103 43 105 120 243 114 27 0 68 56 9 6 0 0 3 3 5 19 189 385 232 346 282 214 763 837 2198 2153 2331 1540 1372 983 946 928 1173 819 732 182
0 0 0 0 5 40 111 101 53 335 189 124 23 7 105 36 10 13 0 3 2 2 7 10 289 463 795 471 257 1418 526 453 1512 2201 2156 1741 605 831 642 674 450 212 3 0
0 0 2 0 59 12 0 11 23 147 211 111 60 20 57 30 55 16 2 2 3 6 4 3 146 78 361 513 790 693 510 49 354 1710 1775 1368 453 479 486 377 8 0 0 0
0 5 28 70 31 19 2 16 84 77 140 66 174 34 40 24 31 15 0 2 2 8 9 9 25 62 42 113 14 524 96 468 1616 1751 1062 455 12 3 4 0 0 0 0 0
10 13 26 14 1 9 18 49 41 96 65 94 54 49 48 96 44 32 0 2 4 8 8 7 7 8 127 101 137 12 51 1431 1016 244 94 0 7 5 2 3 0 1 1 0
13 11 25 16 11 17 45 162 136 30 7 41 58 31 12 67 91 7 2 4 5 6 10 6 5 129 0 113 207 194 788 577 374 155 10 0 1 3 2 0 0 2 1 1
12 51 38 19 22 17 29 45 36 53 52 101 32 25 26 27 23 6 1 7 5 6 10 7 6 16 31 106 82 12 5 6 52 8 2 0 1 2 2 0 1 1 3 2
31 25 34 39 19 24 3 72 30 10 76 13 26 22 29 31 53 0 0 2 3 7 12 7 6 10 5 4 61 5 1 6 11 8 4 1 1 2 4 1 2 4 3 4
48 49 50 28 48 14 116 177 12 0 12 2 2 38 17 2 8 31 0 0 2 8 9 5 10 9 3 7 5 3 4 1 7 23 13 3 1 3 4 2 4 3 2 5
10 149 94 81 81 22 85 36 7 0 52 7 33 24 2 3 9 45 31 0 0 8 12 16 8 10 4 3 9 3 5 4 3 2 13 4 2 5 3 5 2 2 0 0
56 53 81 135 111 74 52 7 0 18 28 18 3 29 11 16 36 41 94 0 0 2 0 2 5 8 7 4 3 2 1 2 2 0 2 3 5 1 1 3 2 1 0 0
32 17 24 48 71 117 0 20 21 69 83 33 16 14 26 39 16 26 36 11 0 2 1 2 5 7 7 6 2 2 2 3 1 1 0 0 1 2 1 2 1 0 0 0
81 52 44 23 12 89 166 85 157 31 54 41 35 11 28 36 27 13 11 4 9 4 6 3 4 4 6 2 2 2 3 1 2 1 4 6 2 2 0 0 2 0 0 0
2 21 22 105 1 2 5 40 52 21 21 64 25 29 51 55 25 3 0 5 8 6 6 4 6 5 7 5 4 3 3 1 1 1 1 1 2 2 2 0 0 0 0 0
0 0 0 0 7 9 21 26 23 14 2 17 37 46 51 54 22 0 0 4 1 8 5 3 4 4 6 5 5 2 1 2 3 7 2 2 1 0 0 0 0 0 0 0
0 0 6 26 22 10 15 1 11 15 8 21 50 30 49 51 20 0 2 1 3 7 7 4 4 5 3 4 5 3 1 0 0 0 0 0 0 0 0 0 0 0 0 0
CIN
-0 -0 -0 -0 -0 -0 -0 -0 -0 -0 -0 -1 -0 -0 -0 -67 -15 -21 -31 -47 -22 -14 -15 -17 -15 -25 -44 -48 -55 -47 -0 -117 -51 -21 -31 -52 -41 -16 -10 -11 -17 -42 -32 -25
-0 -0 -1 -0 -0 -0 -0 -0 -0 -0 -1 -0 -0 -0 -33 -3 -6 -12 -32 -99 -39 -0 -1 -150 -60 -60 -21 -45 -48 -68 -56 -126 -56 -24 -14 -30 -43 -23 -30 -13 -26 -42 -37 -22
-0 -0 -0 -0 -0 -0 -0 -0 -0 -0 -0 -0 -23 -3 -0 -2 -24 -50 -54 -87 -134 -105 -58 -43 -31 -27 -43 -25 -40 -61 -73 -56 -34 -30 -10 -25 -41 -26 -24 -31 -37 -44 -45 -72
-0 -0 -0 -0 -0 -0 -0 -0 -0 -0 -0 -0 -17 -0 -0 -41 -30 -73 -152 -208 -163 -99 -28 -5 -25 -15 -29 -29 -39 -55 -70 -118 -25 -12 -7 -2 -7 -15 -26 -35 -37 -59 -46 -89
-0 -0 -0 -0 -0 -0 -0 -0 -0 -0 -0 -0 -28 -1 -1 -1 -93 -14 -0 -0 -0 -188 -120 -26 -28 -12 -19 -30 -54 -68 -59 -133 -28 -7 -10 -6 -3 -29 -38 -66 -46 -73 -55 -104
-0 -0 -0 -0 -0 -0 -0 -0 -1 -10 -9 -4 -1 -4 -26 -26 -88 -169 -0 -0 -0 -0 -0 -58 -1 -9 -96 -45 -30 -79 -81 -93 -50 -7 -2 -8 -3 -13 -35 -33 -36 -55 -58 -90
-0 -1 -0 -0 -0 -0 -0 -1 -19 -6 -23 -5 -12 -0 -66 -95 -12 -2 -0 -0 -0 -0 -0 -97 -90 -77 -215 -94 -48 -40 -79 -85 -41 -5 -1 -3 -13 -6 -30 -32 -27 -30 -91 -86
-0 -2 -0 -0 -0 -0 -0 -6 -21 -1 -0 -0 -88 -8 -0 -12 -22 -0 -0 -0 -0 -0 -25 -43 -43 -0 -0 -190 -182 -43 -37 -73 -32 -4 -0 -3 -9 -27 -51 -30 -14 -20 -70 -61
-0 -0 -0 -0 -1 -0 -1 -2 -1 -21 -1 -0 -8 -2 -25 -36 -0 -0 -0 -0 -0 -0 -3 -41 -44 -183 -0 -279 -38 -273 -21 -35 -12 -3 -1 -4 -9 -29 -43 -38 -24 -11 -15 -10
-0 -0 -0 -0 -0 -3 -8 -2 -2 -3 -0 -0 -0 -0 -7 -0 -0 -0 -0 -0 -1 -0 -0 -136 -131 -31 -136 -110 -77 -46 -17 -16 -6 -1 -0 -7 -14 -23 -34 -18 -19 -26 -38 -30
-0 -0 -0 -0 -1 -1 -3 -17 -0 -1 -0 -0 -0 -0 -5 -2 -25 -11 -0 -1 -0 -0 -0 -23 -54 -102 -158 -150 -49 -9 -19 -18 -15 -5 -0 -17 -7 -46 -33 -27 -30 -97 -52 -181
-0 -0 -0 -0 -1 -2 -0 -2 -1 -0 -0 -4 -9 -0 -3 -4 -0 -0 -0 -0 -0 -0 -0 -3 -65 -107 -20 -19 -13 -94 -240 -197 -48 -3 -23 -1 -47 -34 -40 -27 -37 -110 -136 -0
-0 -0 -0 -0 -36 -3 -0 -0 -2 -0 -6 -0 -0 -1 -1 -2 -2 -0 -2 -2 -0 -0 -0 -0 -234 -307 -206 -261 -92 -167 -295 -82 -212 -6 -1 -10 -10 -27 -26 -26 -141 -0 -0 -0
-0 -0 -0 -11 -0 -0 -0 -24 -0 -0 -0 -0 -2 -0 -0 -2 -4 -6 -0 -0 -0 -0 -0 -0 -308 -362 -303 -315 -258 -81 -278 -102 -9 -4 -14 -12 -186 -129 -0 -0 -0 -0 -0 -0
-3 -0 -0 -1 -0 -0 -0 -1 -0 -1 -2 -6 -0 -0 -1 -0 -6 -10 -0 -0 -0 -0 -0 -0 -35 -169 -70 -215 -129 -44 -33 -11 -23 -96 -104 -0 -144 -0 -0 -0 -1 -1 -1 -0
-1 -0 -0 -0 -1 -1 -1 -15 -2 -0 -5 -1 -0 -4 -1 -1 -0 -4 -0 -0 -0 -0 -0 -0 -0 -28 -0 -103 -8 -55 -22 -105 -112 -149 -243 -0 -0 -0 -0 -0 -0 -0 -0 -0
-0 -28 -0 -0 -0 -0 -16 -54 -1 -1 -4 -1 -0 -0 -3 -0 -2 -1 -0 -0 -0 -0 -0 -0 -0 -0 -11 -12 -12 -0 -0 -241 -187 -199 -0 -0 -0 -0 -0 -0 -0 -0 -0 -0
-7 -0 -0 -24 -17 -1 -4 -2 -1 -0 -2 -20 -18 -9 -0 -0 -6 -5 -0 -0 -0 -0 -0 -0 -0 -0 -0 -0 -15 -0 -0 -0 -0 -0 -0 -0 -0 -0 -0 -0 -0 -0 -0 -0
-11 -5 -10 -13 -3 -2 -20 -1 -6 -0 -7 -23 -13 -1 -0 -0 -0 -53 -0 -0 -0 -0 -0 -0 -0 -0 -0 -0 -0 -0 -0 -0 -0 -0 -0 -0 -0 -0 -0 -0 -0 -0 -0 -0
-5 -1 -4 -0 -0 -6 -6 -4 -1 -0 -7 -1 -5 -0 -5 -3 -0 -0 -20 -0 -0 -0 -0 -0 -0 -0 -0 -0 -0 -0 -0 -0 -0 -0 -0 -0 -0 -0 -0 -0 -0 -1 -0 -0
-1 -2 -0 -1 -1 -0 -14 -10 -0 -0 -0 -4 -0 -2 -22 -11 -0 -10 -3 -0 -0 -0 -0 -0 -0 -0 -0 -0 -0 -0 -0 -0 -0 -0 -0 -0 -0 -0 -0 -0 -2 -1 -0 -0
-7 -0 -9 -2 -0 -7 -0 -1 -2 -3 -0 -1 -1 -8 -24 -5 -5 -3 -1 -8 -0 -0 -0 -0 -0 -0 -0 -0 -0 -0 -0 -0 -0 -0 -0 -0 -0 -0 -1 -0 -1 -0 -0 -0
-0 -1 -3 -2 -0 -19 -2 -12 -4 -0 -3 -13 -6 -2 -4 -13 -11 -12 -0 -0 -0 -0 -0 -0 -0 -0 -0 -0 -0 -0 -0 -0 -0 -0 -0 -0 -0 -0 -1 -1 -1 -0 -0 -0
-3 -1 -0 -0 -0 -1 -3 -11 -0 -1 -0 -1 -0 -4 -0 -12 -26 -11 -0 -0 -0 -0 -0 -0 -0 -0 -0 -0 -0 -0 -0 -0 -0 -0 -0 -0 -0 -0 -1 -1 -0 -0 -0 -0
-0 -0 -0 -0 -0 -1 -2 -5 -1 -1 -0 -0 -0 -18 -13 -3 -21 -2 -0 -0 -0 -0 -0 -0 -0 -0 -0 -0 -0 -0 -0 -0 -0 -0 -0 -0 -1 -0 -0 -0 -0 -0 -0 -0
-0 -0 -0 -0 -2 -6 -2 -2 -13 -0 -0 -1 -2 -4 -3 -1 -27 -0 -0 -0 -0 -0 -0 -0 -0 -0 -0 -0 -0 -0 -0 -0 -0 -0 -0 -0 -0 -0 -0 -0 -0 -0 -0 -0
Wind_Speed
10 8 12 15 11 14 15 17 20 20 17 18 18 22 23 22 16 15 11 13 13 13 11 5 5 9 10 10 9 9 9 9 5 10 11 10 8 7 10 10 10 16 11 9
11 16 11 9 10 14 16 19 19 17 16 18 21 25 25 15 9 12 15 13 11 11 11 11 8 8 8 10 9 11 11 11 8 11 12 11 10 9 11 9 9 15 13 9
13 16 8 9 12 16 16 16 16 19 20 20 25 19 15 10 10 18 22 19 17 14 11 11 10 9 10 10 11 11 11 11 12 17 11 10 11 10 8 6 9 13 13 11
11 8 7 11 12 12 13 17 17 20 20 16 20 13 13 11 8 12 16 20 22 23 23 17 16 17 12 12 12 12 12 11 11 13 13 15 14 14 10 6 10 12 12 11
16 19 14 11 10 12 17 15 19 23 23 20 17 9 7 6 11 15 17 18 21 21 21 23 21 21 19 15 14 13 12 12 11 14 15 13 14 13 8 5 12 13 10 11
16 14 15 5 11 18 23 12 19 20 18 10 4 16 9 9 13 17 19 23 24 24 22 23 19 19 17 18 17 16 16 14 15 16 18 17 18 16 13 9 11 12 10 9
21 9 9 2 12 14 17 12 6 6 7 10 23 12 9 9 15 19 24 26 27 26 22 21 18 20 21 20 18 18 18 18 16 18 18 20 18 19 19 11 12 14 11 10
12 9 18 20 13 13 19 4 2 4 9 16 22 4 8 3 18 22 24 25 23 24 25 22 18 19 22 20 13 22 21 19 19 17 18 19 19 14 14 11 14 12 11 11
13 13 25 19 6 13 9 9 7 3 9 8 9 3 12 22 22 27 27 24 24 23 23 24 22 19 21 16 14 25 21 21 21 19 16 18 18 20 15 10 15 11 13 10
11 18 13 14 17 11 2 6 6 3 4 7 10 14 8 24 21 26 27 22 24 22 21 25 21 21 21 21 18 22 15 20 18 19 15 15 17 19 15 16 14 15 12 16
15 10 15 16 15 7 10 3 8 5 4 3 7 8 11 17 21 23 24 20 24 24 21 22 24 29 23 22 20 20 12 16 17 18 15 16 16 18 16 13 12 14 19 19
9 7 12 22 12 10 10 14 11 4 6 5 4 8 16 19 21 21 21 20 24 24 22 22 24 27 15 10 13 14 8 2 6 14 14 15 18 15 10 14 14 21 20 19
8 6 11 12 2 8 18 17 15 11 5 7 3 7 17 18 20 20 19 20 22 23 25 25 22 15 19 22 11 15 10 9 15 12 9 8 10 11 14 18 19 20 21 20
4 6 7 6 17 20 19 20 18 8 4 7 10 18 19 21 20 19 18 17 21 21 21 21 22 15 14 13 14 5 14 23 15 13 6 7 12 20 20 21 20 21 21 20
3 6 14 15 20 23 20 22 13 11 8 3 14 16 18 20 18 16 11 16 19 21 22 21 20 9 7 13 14 16 19 5 9 13 14 15 11 20 22 21 20 18 19 18
6 14 16 16 23 20 20 19 11 8 11 15 13 16 15 18 18 13 12 16 18 19 20 20 19 16 11 15 16 13 6 10 12 15 16 19 10 19 21 19 19 19 18 18
13 8 11 18 21 21 8 11 4 9 11 10 11 16 16 19 18 8 14 14 16 17 17 18 16 11 13 11 12 12 11 9 11 11 14 20 14 15 17 21 20 19 18 18
10 8 9 13 16 8 15 4 10 14 9 10 12 12 16 19 17 7 9 13 15 15 15 15 14 11 11 9 9 8 11 12 9 10 13 17 21 17 16 18 21 17 14 16
7 6 6 6 9 13 4 9 10 16 9 10 11 12 16 20 16 4 12 8 11 14 11 10 12 10 8 11 10 9 11 9 10 6 12 16 18 17 17 20 17 16 16 14
6 8 6 11 8 4 11 12 17 16 3 10 10 15 17 20 14 12 11 6 10 15 12 10 11 10 9 8 7 8 11 11 13 11 5 14 18 20 20 19 18 16 15 17
7 10 12 12 12 5 8 17 14 12 13 17 18 12 13 11 11 10 11 8 6 10 13 13 9 8 8 5 7 8 11 11 12 17 5 16 15 18 20 21 16 17 15 16
12 7 11 9 11 6 21 13 11 7 12 13 11 12 12 12 13 14 13 12 11 10 14 15 8 7 7 7 7 8 16 10 15 17 6 17 14 13 15 23 17 15 16 16
11 6 8 7 10 19 14 11 12 8 10 5 8 9 15 9 9 13 12 12 10 10 9 12 7 8 10 9 8 12 11 10 14 12 12 16 16 16 16 20 17 15 13 11
15 13 11 14 12 18 18 15 9 10 14 11 10 12 19 5 8 12 12 10 10 8 8 9 8 8 9 9 8 9 11 11 13 15 15 16 18 18 17 13 10 10 9 9
12 16 16 17 17 15 10 13 12 10 10 14 6 6 14 8 7 10 11 10 10 7 7 7 6 7 9 8 8 7 9 11 13 15 15 16 14 15 13 11 8 7 6 7
14 15 11 12 12 11 13 14 15 14 13 12 6 8 9 11 8 11 10 9 10 9 7 6 6 8 8 8 8 8 8 12 14 14 12 12 12 11 12 13 14 23 24 25
Wind_Direction
272 262 277 304 3 321 304 290 288 285 298 332 315 307 294 282 280 309 341 328 322 337 328 293 278 225 207 207 199 204 234 261 227 204 190 198 229 204 209 189 176 170 177 173
264 237 260 9 316 298 288 284 289 309 335 318 297 283 273 288 339 324 291 333 353 326 317 316 314 306 254 218 203 199 203 245 232 196 201 200 199 227 206 184 177 166 169 168
310 292 335 308 300 300 296 300 318 320 308 289 284 292 320 330 15 22 3 2 349 338 337 333 316 249 253 241 221 202 207 221 248 188 200 195 208 217 207 191 151 166 173 171
292 264 304 304 305 311 313 320 313 303 299 298 298 299 309 40 27 11 353 347 342 334 327 317 302 292 240 233 218 209 197 208 244 203 198 194 198 207 211 192 160 162 165 158
286 313 310 311 330 328 292 298 300 288 296 288 284 305 293 7 18 3 356 348 335 322 312 311 311 303 283 220 208 201 199 203 234 207 203 200 205 207 201 188 160 160 161 169
256 268 263 332 309 287 300 294 313 311 276 265 345 335 313 47 7 351 346 338 336 326 310 296 295 308 313 299 208 200 191 208 219 210 211 201 206 203 209 193 169 159 164 167
312 23 92 161 307 323 336 3 332 310 342 314 335 323 55 28 354 359 346 342 337 327 308 293 339 321 304 304 293 198 194 195 215 206 209 206 202 205 200 181 173 162 164 168
355 340 8 343 319 318 305 97 141 283 323 313 302 294 20 317 358 352 351 345 343 327 315 322 318 301 284 274 282 280 192 192 207 201 207 205 199 205 199 186 167 166 160 170
313 318 323 301 326 309 333 4 350 150 276 279 282 19 194 7 355 350 342 345 341 326 320 314 297 286 281 274 276 294 190 189 201 196 199 204 200 203 198 186 165 161 159 157
313 306 310 322 303 290 24 298 327 17 308 299 317 310 7 350 354 346 344 345 332 324 322 312 309 300 279 264 269 265 177 189 190 194 194 198 196 194 183 190 175 160 146 133
320 322 311 298 310 327 242 1 312 351 289 306 300 305 20 4 353 347 339 347 332 328 326 316 312 305 277 272 256 206 191 195 177 185 185 196 200 190 183 168 163 131 119 122
352 301 301 304 315 301 36 348 337 335 291 224 251 273 5 360 351 349 333 343 336 328 327 332 324 332 265 180 255 82 50 45 205 192 188 175 203 176 163 171 134 115 122 119
355 331 323 326 123 340 339 325 314 299 301 277 308 282 319 354 351 358 342 341 335 332 335 342 340 345 11 358 340 132 135 217 244 194 187 179 183 158 148 124 117 120 113 112
105 293 303 275 293 294 301 298 293 310 289 317 290 319 335 352 345 354 344 339 334 338 341 343 338 341 20 347 357 305 190 208 196 161 136 113 120 122 113 110 109 112 112 113
242 290 289 309 303 287 284 283 296 295 337 288 314 321 338 344 336 355 339 340 339 344 349 347 350 321 354 357 354 300 286 288 106 103 133 98 130 123 113 110 107 106 106 106
295 295 306 302 295 307 318 26 349 0 330 327 328 331 341 329 335 352 350 347 344 346 346 350 350 357 356 19 357 331 326 101 117 133 112 114 142 111 111 105 103 104 107 107
284 299 309 295 302 307 38 220 10 346 3 5 354 336 312 338 338 7 353 354 345 342 342 348 346 2 357 10 6 355 36 47 90 113 131 114 106 107 112 119 114 108 117 115
255 289 287 304 318 316 355 74 360 4 66 23 350 331 333 329 339 74 23 358 342 342 346 349 342 355 353 1 18 35 44 42 64 107 115 106 122 118 115 103 105 107 104 109
199 276 292 293 321 300 21 15 1 347 5 15 317 299 350 330 333 139 44 25 340 338 346 350 335 345 360 6 19 44 47 74 61 71 120 115 106 112 106 103 106 112 110 109
211 201 243 291 291 266 31 306 351 322 24 315 325 351 348 332 342 347 38 47 343 344 351 1 350 360 7 15 22 72 72 78 75 42 68 109 111 117 113 110 107 107 111 108
310 288 270 257 270 281 7 332 346 351 348 332 323 2 343 321 331 322 9 38 11 353 349 348 12 10 0 11 73 72 76 64 88 71 19 90 103 113 114 110 111 111 112 104
291 295 299 316 313 326 358 350 8 298 310 327 325 7 321 315 329 342 8 17 6 11 356 348 7 19 30 17 84 96 71 65 73 83 111 92 97 106 110 105 108 106 105 105
260 217 290 301 302 317 312 343 337 324 18 14 344 338 315 325 332 337 20 10 20 12 359 345 11 20 23 27 48 78 82 84 90 105 104 105 103 100 100 103 104 101 106 110
307 303 282 283 298 316 315 305 315 357 353 8 356 337 319 35 350 348 15 11 29 7 12 358 8 37 45 35 52 78 99 109 116 110 104 101 98 97 93 91 97 108 117 114
292 300 292 288 286 288 315 353 340 339 341 324 342 337 313 6 13 1 5 11 35 30 34 9 36 50 61 58 68 81 100 113 109 104 104 101 92 91 87 65 66 70 40 101
257 254 262 287 327 313 297 314 325 327 326 317 360 324 310 354 51 17 5 15 36 42 48 37 62 94 83 81 79 88 103 113 112 109 103 105 99 99 102 97 83 62 76 74